Theta_e
309 309 308 308 308 308 309 309 309 309 309 309 309 309 309 308 308 301 293 298 312 311 314 311 310 307 308 302 301 300 290 288 290 292 293 298 296 299 300 300 300 302 303 307 313
308 308 308 308 308 308 308 308 308 308 308 309 309 309 308 308 300 293 300 309 310 310 307 304 301 305 300 300 299 294 290 291 296 297 295 297 297 298 297 298 299 300 304 311 319
307 307 308 308 307 307 308 308 308 308 308 308 308 308 307 305 291 293 308 310 307 305 303 304 305 304 296 298 296 295 291 295 296 297 297 295 296 298 297 296 300 299 302 309 316
307 307 306 306 306 308 308 308 308 307 307 308 308 307 306 300 281 295 307 307 305 302 298 297 299 296 295 292 296 290 294 295 297 298 295 293 296 295 297 298 302 303 303 309 312
305 306 306 305 307 307 307 307 307 307 307 307 307 306 301 291 290 300 304 302 301 299 294 292 290 293 290 294 295 292 292 295 296 296 296 296 294 294 296 300 302 301 303 308 310
305 306 305 305 305 306 307 306 306 306 306 306 306 305 295 284 297 299 300 298 297 296 294 293 290 292 290 290 291 295 294 294 295 295 295 293 294 295 297 300 298 299 300 302 309
305 305 304 304 305 305 305 306 306 306 305 305 304 298 291 288 297 298 298 297 299 292 290 292 291 289 290 287 292 293 289 292 293 294 294 295 291 292 297 299 297 298 299 301 304
307 305 305 304 304 305 305 305 305 303 303 302 302 294 284 294 298 298 297 293 295 295 292 294 294 289 287 289 287 285 287 283 289 292 294 294 285 293 297 297 297 297 299 300 300
305 305 305 305 304 304 305 304 302 302 299 300 293 289 283 296 293 293 294 289 292 293 293 292 291 285 286 281 279 282 277 281 285 291 291 291 287 293 297 296 296 297 298 299 301
304 304 305 305 305 305 305 302 300 296 295 294 292 285 287 284 290 292 294 292 289 289 288 287 286 281 281 278 271 275 277 278 278 285 288 287 288 292 295 295 295 296 298 298 298
304 304 304 304 304 304 300 294 288 287 289 283 284 283 285 290 292 289 292 289 289 286 280 283 278 275 278 280 280 278 278 277 282 285 283 284 286 289 293 294 295 296 297 298 299
304 303 304 304 304 303 297 289 288 290 280 287 286 286 288 290 283 287 291 283 283 278 281 279 275 279 281 280 278 277 275 276 280 284 284 284 284 288 291 292 294 294 296 297 299
303 303 303 303 303 297 293 290 295 294 281 282 285 284 286 288 282 282 286 284 280 277 278 275 278 281 279 277 275 276 275 275 276 280 283 283 282 285 289 292 293 295 296 297 297
303 303 303 303 295 295 290 294 295 294 274 276 279 283 286 285 280 287 287 283 280 277 278 278 281 279 277 276 277 272 279 278 276 275 272 282 273 283 287 288 291 293 295 296 297
302 302 302 302 294 290 292 294 294 288 263 276 279 288 285 280 281 282 288 284 277 278 278 276 278 277 275 276 279 275 279 277 277 275 274 276 273 279 286 285 288 292 294 296 297
302 302 302 297 294 294 295 292 288 273 263 273 278 278 278 280 280 283 283 286 284 278 279 278 282 280 279 280 280 281 278 277 278 276 268 273 273 277 283 285 288 291 293 295 296
301 301 299 295 289 294 292 287 273 266 274 272 274 277 276 276 278 279 277 276 274 271 273 277 278 281 282 277 280 278 275 268 267 267 266 275 273 276 284 288 290 290 292 295 296
301 300 295 292 294 293 289 279 266 267 270 277 276 275 273 276 276 277 276 274 279 278 274 270 268 277 282 279 277 277 275 269 263 265 269 275 270 277 286 290 292 293 294 294 294
300 295 291 292 295 292 283 270 269 270 275 274 274 270 271 275 275 275 275 274 278 279 271 270 270 279 280 281 279 277 273 278 271 271 271 274 276 280 284 285 287 289 290 290 290
294 290 289 292 292 289 278 272 271 277 278 276 269 270 268 271 272 273 273 278 278 280 280 275 268 277 281 283 282 279 281 272 272 265 265 272 274 276 274 275 279 281 284 285 286
292 284 288 292 290 282 273 272 274 279 279 274 272 270 271 271 272 271 272 277 280 279 280 277 273 273 278 275 274 276 276 277 276 274 268 268 271 275 274 275 275 280 281 282 283
289 279 288 290 279 272 274 274 279 278 280 277 276 274 272 273 271 272 272 275 281 279 274 277 274 270 272 279 280 277 278 277 271 270 274 273 271 277 275 276 277 277 281 281 281
283 282 288 288 274 274 275 274 277 276 276 273 274 276 276 272 269 272 274 279 279 278 275 276 273 268 270 275 279 273 275 274 274 277 273 271 272 277 276 275 276 276 277 280 281
284 276 281 282 279 275 274 273 272 278 275 277 276 277 273 271 274 271 273 277 279 279 282 281 274 270 266 269 273 271 271 274 273 274 274 271 272 272 273 273 274 274 276 277 278
284 278 278 275 276 276 276 274 272 271 276 277 274 273 272 269 270 270 274 276 278 280 279 278 271 271 272 273 275 272 270 270 270 272 271 270 269 271 273 272 273 274 275 275 275
282 279 277 278 277 276 275 272 273 274 275 273 272 274 275 272 273 270 274 274 274 277 276 277 270 271 270 274 274 270 271 270 269 270 271 272 271 274 275 275 274 273 273 273 274
288 287 282 278 276 273 274 274 274 276 277 278 277 276 273 275 279 279 279 278 277 275 274 274 272 270 267 273 273 268 270 270 269 270 270 267 270 273 273 274 273 273 273 273 273
Wind_Speed
19 19 20 19 19 20 21 22 22 22 22 23 23 23 25 26 25 20 15 3 13 10 16 9 10 8 8 10 11 7 12 21 33 30 23 17 21 16 6 20 7 10 20 5 4
19 20 21 21 21 21 21 22 22 23 23 24 25 24 25 26 22 18 5 5 15 13 6 7 10 8 9 9 10 15 18 35 31 22 20 24 20 11 10 17 20 15 11 3 12
20 20 21 21 22 22 23 23 23 24 25 25 25 25 25 23 15 2 14 12 15 12 9 8 9 11 17 15 18 15 26 30 27 20 24 22 24 15 23 23 15 19 20 11 13
21 20 23 24 23 24 24 25 25 26 26 27 28 27 26 15 12 2 10 25 10 10 10 10 12 16 16 18 21 20 25 29 27 25 15 19 22 25 20 21 5 11 2 14 16
21 21 22 22 23 24 25 25 26 27 28 28 28 26 22 9 15 13 20 10 8 12 12 12 13 16 23 21 22 23 30 27 23 20 24 23 27 21 24 23 21 11 6 11 14
22 22 24 23 25 25 26 26 27 28 28 28 27 23 13 22 5 6 6 13 18 15 10 5 7 11 16 16 20 19 23 25 26 26 24 23 26 24 33 24 20 16 15 15 15
20 20 22 23 24 25 26 27 29 28 28 27 24 12 14 25 10 16 13 7 5 4 8 9 10 10 8 18 22 25 27 26 22 22 18 16 33 40 28 22 17 23 21 16 15
22 20 23 24 25 26 27 29 27 29 24 17 18 13 12 7 11 8 3 16 10 15 16 16 15 16 18 14 20 15 15 28 28 27 27 22 35 27 27 29 27 23 22 22 20
23 23 23 23 24 26 28 26 30 22 9 21 9 1 11 11 2 16 14 12 14 14 11 13 17 19 17 16 15 19 23 26 26 21 20 32 34 28 24 13 21 24 25 24 23
22 23 25 24 25 27 28 26 20 3 8 12 3 8 5 9 18 15 16 11 10 13 13 9 12 17 16 14 16 21 25 27 30 24 20 28 29 24 18 26 27 24 23 23 23
22 24 24 26 26 29 14 8 8 1 17 10 25 18 27 11 17 7 7 10 9 7 13 11 10 15 17 21 25 25 27 30 23 26 29 29 26 25 22 22 19 20 21 21 22
22 23 24 26 28 18 11 5 5 7 21 23 17 11 16 7 9 15 10 8 9 18 16 12 17 25 18 16 20 22 25 29 30 29 24 28 31 27 24 24 23 24 22 19 18
23 23 24 26 26 3 11 2 5 6 7 17 7 7 4 5 15 32 13 14 17 23 19 20 29 19 19 22 22 20 21 24 29 28 24 21 31 28 25 24 24 24 23 23 23
24 25 25 27 10 7 6 4 8 3 5 6 9 1 3 21 14 15 12 7 6 15 17 18 24 23 24 25 23 23 26 22 23 24 21 17 21 21 23 25 25 24 21 23 22
24 24 24 21 11 7 6 9 4 3 6 9 7 4 19 16 25 7 4 9 21 23 12 20 14 17 18 22 18 20 19 20 21 20 21 23 13 16 22 24 25 26 25 24 20
24 25 26 9 5 4 10 7 2 2 5 11 8 27 28 22 9 14 22 9 14 13 16 25 19 15 23 22 20 15 11 16 13 13 16 20 18 14 14 22 25 25 26 24 23
23 24 18 5 4 8 6 4 2 3 10 10 26 26 28 21 16 12 18 12 6 8 10 13 12 9 15 13 12 13 10 6 8 9 13 18 21 21 9 12 23 23 22 18 20
21 24 7 2 5 5 3 2 4 2 6 17 19 24 10 21 12 17 19 10 5 11 11 14 15 1 2 7 7 11 15 9 9 12 14 19 13 22 25 21 9 11 13 13 5
17 4 2 3 5 3 3 3 3 3 10 16 19 7 5 17 13 15 18 6 6 10 10 10 15 21 20 16 14 2 15 18 10 3 9 10 14 26 11 15 14 13 12 3 3
5 4 2 6 5 2 1 5 4 7 12 10 7 3 12 15 14 19 9 4 14 8 12 7 16 10 5 12 3 10 1 5 6 5 12 6 5 5 9 11 10 10 8 7 6
3 5 1 4 2 2 3 4 8 9 12 4 7 9 10 14 14 14 9 17 1 14 13 14 6 12 11 7 12 5 6 7 5 8 12 7 6 5 5 6 7 9 10 10 9
2 5 3 1 2 1 2 4 9 10 7 7 7 9 10 14 13 11 10 14 19 21 15 6 7 9 21 14 9 13 6 12 5 7 4 6 5 9 8 8 11 11 11 9 9
3 4 2 1 3 4 4 5 6 6 9 3 5 5 5 9 11 9 13 8 23 9 11 7 4 12 10 1 1 8 16 11 11 7 13 7 6 7 8 11 12 12 12 11 10
1 3 2 1 1 3 8 7 5 6 7 6 9 12 7 11 11 16 24 14 13 24 26 11 3 6 11 18 17 13 18 13 8 6 9 3 6 13 13 13 13 13 12 11 11
2 3 1 3 3 7 7 5 11 5 5 5 5 9 10 11 20 15 16 26 15 15 5 4 6 8 11 16 5 16 20 17 14 7 7 5 6 11 10 8 10 10 11 13 14
3 3 3 4 5 5 4 4 8 7 4 10 10 16 14 17 19 30 25 25 14 5 1 6 6 5 13 6 6 13 17 18 16 14 9 6 7 14 9 4 13 15 14 14 15
3 3 3 4 3 2 4 5 9 16 11 12 17 20 19 19 16 24 24 24 18 18 6 3 3 4 5 5 6 3 10 12 7 14 7 12 8 13 8 6 14 16 16 16 15
Wind_Direction
3 358 358 354 353 352 350 351 348 347 344 341 339 336 333 331 326 311 290 265 335 283 297 292 267 262 223 224 216 221 238 239 239 235 239 243 241 220 253 241 210 213 240 282 137
1 355 353 350 350 350 348 346 346 343 340 338 336 334 334 334 322 297 191 19 2 356 313 260 261 246 229 228 214 210 224 239 238 245 247 245 237 227 216 221 230 228 220 184 162
353 351 351 351 350 343 345 343 342 339 337 334 331 331 335 337 317 231 189 1 354 352 312 282 271 249 239 233 224 227 236 238 247 251 254 255 257 253 251 248 234 228 223 186 172
354 352 353 348 343 341 343 342 339 337 333 331 329 330 331 329 304 260 301 323 349 343 341 325 255 238 242 230 228 248 248 249 258 248 249 246 258 250 242 245 240 242 270 195 192
349 348 350 344 343 342 339 337 334 332 329 325 322 324 325 297 263 288 298 323 319 333 319 299 271 262 252 251 240 238 243 252 253 254 254 256 254 255 251 243 260 248 201 207 210
348 353 347 344 340 339 337 334 330 327 324 319 315 315 304 279 304 270 319 319 303 303 293 268 279 284 279 256 263 253 246 250 249 248 249 251 253 246 247 244 251 259 249 239 217
342 346 343 338 337 335 333 329 325 320 318 312 308 312 292 260 290 301 311 316 307 5 308 303 286 256 281 267 257 269 264 251 251 245 240 253 250 240 250 249 253 243 245 243 231
344 343 339 342 336 335 330 326 322 314 312 312 308 303 266 287 307 301 312 315 271 273 266 265 273 273 271 275 277 267 267 251 245 242 240 231 252 242 238 241 241 245 245 242 238
344 344 338 337 334 329 328 331 315 315 358 312 323 208 276 315 274 320 294 280 295 278 258 251 240 241 256 255 264 242 249 249 248 231 239 228 254 249 251 252 234 235 234 239 247
342 340 339 337 334 332 333 325 309 343 5 296 206 300 242 316 310 299 289 277 270 289 283 228 230 240 232 234 246 246 240 244 253 251 240 245 244 246 238 229 229 226 225 228 235
344 338 338 338 336 332 344 326 350 222 343 293 288 281 272 289 286 280 298 303 267 248 271 239 247 237 246 249 250 256 264 268 269 250 246 254 250 246 241 242 238 234 234 230 233
341 338 338 337 334 342 348 11 34 313 311 306 290 264 265 286 293 285 277 280 266 283 295 267 248 249 261 276 268 261 253 254 260 261 269 249 246 249 244 238 243 243 240 238 241
340 339 336 335 330 13 339 28 329 317 288 308 297 292 318 231 304 292 315 290 270 283 279 261 252 259 252 262 269 255 250 251 250 255 254 281 257 248 239 243 245 245 246 248 244
342 336 335 338 324 343 319 333 322 222 291 284 339 9 270 316 297 325 302 276 246 266 272 257 267 258 258 258 254 255 245 250 261 253 250 243 266 246 233 228 233 235 233 239 242
337 333 333 344 306 315 316 327 336 211 298 343 316 298 313 314 297 308 309 273 278 271 256 261 266 270 257 255 249 245 259 257 251 252 254 237 270 274 239 217 221 234 236 233 231
333 334 332 334 308 295 317 329 245 264 287 329 312 323 324 332 315 292 317 298 276 283 259 260 267 275 255 261 250 250 243 244 262 246 241 237 229 249 230 216 219 224 227 229 234
337 328 337 336 318 321 320 324 295 12 344 329 324 326 320 318 325 324 332 321 313 308 333 322 269 243 238 267 236 229 215 230 222 219 249 237 224 239 266 267 220 227 237 237 233
338 327 349 16 324 336 343 322 353 163 279 312 320 315 309 337 333 332 331 323 333 314 304 338 323 285 87 244 283 216 208 220 227 227 255 224 230 228 224 242 251 241 237 258 302
331 340 23 350 342 330 332 7 318 300 316 322 322 311 295 331 338 327 326 294 327 15 1 323 295 303 284 264 255 246 212 225 265 269 274 236 221 235 283 266 272 256 259 264 44
325 328 310 337 343 17 58 320 270 296 294 319 313 345 311 326 326 341 318 267 332 5 356 308 294 303 319 305 359 231 131 167 195 233 243 244 215 91 12 2 15 25 30 8 355
343 330 65 349 340 60 13 258 287 310 313 279 289 285 279 315 328 317 287 302 297 334 336 304 249 290 306 346 308 352 244 232 262 228 218 234 87 10 2 353 338 27 19 5 358
22 308 49 293 325 58 302 278 285 303 302 281 275 264 268 301 299 296 260 296 307 331 328 311 293 291 301 298 228 343 308 227 237 222 228 299 78 5 17 15 20 13 11 14 4
309 268 80 312 319 336 280 276 266 288 310 271 267 254 278 296 307 258 290 280 311 309 325 315 279 317 323 191 278 332 330 304 285 260 234 241 107 26 21 28 21 13 1 359 7
308 302 283 51 114 277 326 302 293 266 273 247 269 287 297 284 255 278 286 306 313 306 302 299 298 254 284 291 309 332 349 326 233 190 167 36 115 14 14 19 11 5 1 -0 1
183 242 241 282 278 284 301 273 297 309 235 265 259 237 291 290 301 267 281 298 307 302 306 293 281 278 274 289 285 28 5 13 48 24 45 67 76 9 1 13 6 4 5 9 6
240 220 181 270 275 273 277 243 275 295 263 293 259 281 295 288 281 295 302 305 312 312 13 301 271 305 298 239 52 39 16 22 26 14 40 30 63 3 353 343 16 16 13 11 5
190 232 197 227 200 223 240 245 277 306 287 265 289 301 297 289 292 288 283 283 274 285 310 253 268 315 281 329 299 352 4 40 45 31 343 33 334 333 350 30 22 9 8 5 356